Time,TemperatureF,DewpointF,PressureIn,WindDirection,WindDirectionDegrees,WindSpeedMPH,WindSpeedGustMPH,Humidity,HourlyPrecipIn,Conditions,Clouds,dailyrainin,SoftwareType,DateUTC
2013-01-15 00:10:00,39.2,33.8,30.65,North,350,3.5,-999.9,81,-99.99,,,-99.99,,2013-01-15 05:10:00,
2013-01-15 00:18:00,39.2,33.8,30.65,North,350,3.5,-999.9,81,-99.99,,,-99.99,,2013-01-15 05:18:00,
2013-01-15 00:20:00,37.4,33.8,30.66,NNW,329,3.5,-999.9,87,-99.99,,,-99.99,,2013-01-15 05:20:00,
2013-01-15 00:28:00,37.4,33.8,30.66,NNW,329,3.5,-999.9,87,-99.99,,,-99.99,,2013-01-15 05:28:00,
2013-01-15 00:34:00,35.6,32.0,30.65,NNW,346,1.2,-999.9,87,-99.99,,,-99.99,,2013-01-15 05:34:00,
2013-01-15 00:40:00,35.6,33.8,30.65,North,352,1.2,-999.9,93,-99.99,,,-99.99,,2013-01-15 05:40:00,
2013-01-15 00:48:00,35.6,33.8,30.65,North,352,1.2,-999.9,93,-99.99,,,-99.99,,2013-01-15 05:48:00,
2013-01-15 00:54:00,35.6,33.8,30.64,North,0,0.0,-999.9,93,-99.99,,,-99.99,,2013-01-15 05:54:00,
2013-01-15 01:00:00,35.6,33.8,30.63,North,0,0.0,-999.9,93,-99.99,,,-99.99,,2013-01-15 06:00:00,
2013-01-15 01:07:00,35.6,33.8,30.63,North,0,0.0,-999.9,93,-99.99,,,-99.99,,2013-01-15 06:07:00,
2013-01-15 01:24:00,35.6,33.8,30.63,NW,326,2.3,-999.9,93,-99.99,,,-99.99,,2013-01-15 06:24:00,
2013-01-15 02:14:00,35.6,32.0,30.65,NNW,340,4.6,-999.9,87,-99.99,,,-99.99,,2013-01-15 07:14:00,
2013-01-15 02:22:00,35.6,33.8,30.65,NNW,336,3.5,-999.9,93,-99.99,,,-99.99,,2013-01-15 07:22:00,
2013-01-15 02:30:00,35.6,33.8,30.66,NNE,30,8.1,-999.9,93,-99.99,,,-99.99,,2013-01-15 07:30:00,
2013-01-15 02:36:00,35.6,33.8,30.66,NNE,30,8.1,-999.9,93,-99.99,,,-99.99,,2013-01-15 07:36:00,
2013-01-15 02:42:00,35.6,33.8,30.64,ESE,105,1.2,-999.9,93,-99.99,,,-99.99,,2013-01-15 07:42:00,
2013-01-15 02:50:00,35.6,33.8,30.62,North,0,0.0,-999.9,93,-99.99,,,-99.99,,2013-01-15 07:50:00,
2013-01-15 02:56:00,35.6,33.8,30.62,North,0,0.0,-999.9,93,-99.99,,,-99.99,,2013-01-15 07:56:00,
2013-01-15 03:02:00,35.6,33.8,30.62,North,0,0.0,-999.9,93,-99.99,,,-99.99,,2013-01-15 08:02:00,
2013-01-15 03:10:00,35.6,33.8,30.60,NE,49,0.0,-999.9,93,-99.99,,,-99.99,,2013-01-15 08:10:00,
2013-01-15 03:16:00,35.6,33.8,30.60,NE,49,0.0,-999.9,93,-99.99,,,-99.99,,2013-01-15 08:16:00,
2013-01-15 03:22:00,35.6,33.8,30.60,North,0,0.0,-999.9,93,-99.99,,,-99.99,,2013-01-15 08:22:00,
2013-01-15 03:30:00,35.6,33.8,30.60,NNW,329,1.2,-999.9,93,-99.99,,,-99.99,,2013-01-15 08:30:00,
2013-01-15 03:36:00,35.6,33.8,30.60,NNW,329,1.2,-999.9,93,-99.99,,,-99.99,,2013-01-15 08:36:00,
2013-01-15 03:42:00,35.6,33.8,30.63,North,6,4.6,-999.9,93,-99.99,,,-99.99,,2013-01-15 08:42:00,
2013-01-15 03:50:00,35.6,33.8,30.61,ESE,110,1.2,-999.9,93,-99.99,,,-99.99,,2013-01-15 08:50:00,
2013-01-15 04:02:00,35.6,33.8,30.61,East,84,1.2,-999.9,93,-99.99,,,-99.99,,2013-01-15 09:02:00,
2013-01-15 04:10:00,35.6,33.8,30.63,NNW,328,2.3,-999.9,93,-99.99,,,-99.99,,2013-01-15 09:10:00,
2013-01-15 04:16:00,35.6,33.8,30.63,NNW,328,2.3,-999.9,93,-99.99,,,-99.99,,2013-01-15 09:16:00,
2013-01-15 04:22:00,35.6,32.0,30.63,NNW,338,0.0,-999.9,87,-99.99,,,-99.99,,2013-01-15 09:22:00,
2013-01-15 04:30:00,35.6,32.0,30.63,NNW,338,4.6,-999.9,87,-99.99,,,-99.99,,2013-01-15 09:30:00,
2013-01-15 04:36:00,35.6,32.0,30.63,NNW,338,4.6,-999.9,87,-99.99,,,-99.99,,2013-01-15 09:36:00,
2013-01-15 04:42:00,35.6,32.0,30.62,North,357,1.2,-999.9,87,-99.99,,,-99.99,,2013-01-15 09:42:00,
2013-01-15 04:50:00,35.6,32.0,30.62,North,0,0.0,-999.9,87,-99.99,,,-99.99,,2013-01-15 09:50:00,
2013-01-15 04:56:00,35.6,32.0,30.62,North,0,0.0,-999.9,87,-99.99,,,-99.99,,2013-01-15 09:56:00,
2013-01-15 05:02:00,35.6,32.0,30.62,North,0,0.0,-999.9,87,-99.99,,,-99.99,,2013-01-15 10:02:00,
2013-01-15 05:10:00,35.6,32.0,30.62,North,0,0.0,-999.9,87,-99.99,,,-99.99,,2013-01-15 10:10:00,
2013-01-15 05:16:00,35.6,32.0,30.63,North,0,0.0,-999.9,87,-99.99,,,-99.99,,2013-01-15 10:16:00,
2013-01-15 05:22:00,35.6,32.0,30.63,NNW,328,0.0,-999.9,87,-99.99,,,-99.99,,2013-01-15 10:22:00,
2013-01-15 05:30:00,35.6,32.0,30.64,North,0,0.0,-999.9,87,-99.99,,,-99.99,,2013-01-15 10:30:00,
2013-01-15 05:36:00,35.6,32.0,30.64,North,0,0.0,-999.9,87,-99.99,,,-99.99,,2013-01-15 10:36:00,
2013-01-15 05:42:00,35.6,32.0,30.64,NE,36,1.2,-999.9,87,-99.99,,,-99.99,,2013-01-15 10:42:00,
2013-01-15 05:50:00,35.6,32.0,30.64,North,0,0.0,-999.9,87,-99.99,,,-99.99,,2013-01-15 10:50:00,
2013-01-15 05:56:00,35.6,32.0,30.64,North,0,0.0,-999.9,87,-99.99,,,-99.99,,2013-01-15 10:56:00,
2013-01-15 06:02:00,35.6,32.0,30.65,NW,326,1.2,-999.9,87,-99.99,,,-99.99,,2013-01-15 11:02:00,
2013-01-15 06:10:00,35.6,30.2,30.65,NW,323,1.2,-999.9,81,-99.99,,,-99.99,,2013-01-15 11:10:00,
2013-01-15 06:16:00,35.6,30.2,30.65,NW,323,1.2,-999.9,81,-99.99,,,-99.99,,2013-01-15 11:16:00,
2013-01-15 06:22:00,35.6,30.2,30.65,North,0,0.0,-999.9,81,-99.99,,,-99.99,,2013-01-15 11:22:00,
2013-01-15 06:30:00,35.6,30.2,30.66,NNW,342,2.3,-999.9,81,-99.99,,,-99.99,,2013-01-15 11:30:00,
2013-01-15 06:36:00,35.6,30.2,30.66,NNW,342,2.3,-999.9,81,-99.99,,,-99.99,,2013-01-15 11:36:00,
2013-01-15 06:42:00,35.6,30.2,30.66,North,4,0.0,-999.9,81,-99.99,,,-99.99,,2013-01-15 11:42:00,
2013-01-15 06:50:00,35.6,28.4,30.67,North,359,3.5,-999.9,75,-99.99,,,-99.99,,2013-01-15 11:50:00,
2013-01-15 06:56:00,35.6,28.4,30.67,North,359,3.5,-999.9,75,-99.99,,,-99.99,,2013-01-15 11:56:00,
2013-01-15 07:11:00,35.6,30.2,30.67,North,0,0.0,-999.9,81,-99.99,,,-99.99,,2013-01-15 12:11:00,
2013-01-15 07:21:00,35.6,28.4,30.67,North,351,1.2,-999.9,75,-99.99,,,-99.99,,2013-01-15 12:21:00,
2013-01-15 07:26:00,35.6,28.4,30.67,North,351,1.2,-999.9,75,-99.99,,,-99.99,,2013-01-15 12:26:00,
2013-01-15 07:32:00,35.6,28.4,30.67,North,9,3.5,-999.9,75,-99.99,,,-99.99,,2013-01-15 12:32:00,
2013-01-15 07:40:00,35.6,28.4,30.68,North,8,3.5,-999.9,75,-99.99,,,-99.99,,2013-01-15 12:40:00,
2013-01-15 07:46:00,35.6,28.4,30.68,North,8,3.5,-999.9,75,-99.99,,,-99.99,,2013-01-15 12:46:00,
2013-01-15 07:53:00,35.6,30.2,30.69,NNW,348,2.3,-999.9,81,-99.99,,,-99.99,,2013-01-15 12:53:00,
2013-01-15 08:00:00,35.6,30.2,30.69,North,351,2.3,-999.9,81,-99.99,,,-99.99,,2013-01-15 13:00:00,
2013-01-15 08:06:00,35.6,30.2,30.69,North,351,2.3,-999.9,81,-99.99,,,-99.99,,2013-01-15 13:06:00,
2013-01-15 08:12:00,35.6,30.2,30.70,NNW,330,0.0,-999.9,81,-99.99,,,-99.99,,2013-01-15 13:12:00,
2013-01-15 08:20:00,35.6,30.2,30.71,NNW,333,4.6,-999.9,81,-99.99,,,-99.99,,2013-01-15 13:20:00,
2013-01-15 08:26:00,35.6,30.2,30.71,NNW,333,4.6,-999.9,81,-99.99,,,-99.99,,2013-01-15 13:26:00,
2013-01-15 08:32:00,35.6,28.4,30.71,NNW,348,4.6,-999.9,75,-99.99,,,-99.99,,2013-01-15 13:32:00,
2013-01-15 08:40:00,35.6,28.4,30.71,NNW,348,4.6,-999.9,75,-99.99,,,-99.99,,2013-01-15 13:40:00,
2013-01-15 08:46:00,35.6,28.4,30.72,North,350,3.5,-999.9,75,-99.99,,,-99.99,,2013-01-15 13:46:00,
2013-01-15 08:56:00,35.6,28.4,30.71,North,354,3.5,-999.9,75,-99.99,,,-99.99,,2013-01-15 13:56:00,
2013-01-15 09:02:00,35.6,28.4,30.72,NNE,30,5.8,-999.9,75,-99.99,,,-99.99,,2013-01-15 14:02:00,
2013-01-15 09:10:00,35.6,26.6,30.73,NNW,334,4.6,-999.9,70,-99.99,,,-99.99,,2013-01-15 14:10:00,
2013-01-15 09:16:00,35.6,26.6,30.73,NNW,334,4.6,-999.9,70,-99.99,,,-99.99,,2013-01-15 14:16:00,
2013-01-15 09:22:00,35.6,26.6,30.72,NNE,15,3.5,-999.9,70,-99.99,,,-99.99,,2013-01-15 14:22:00,
2013-01-15 09:30:00,35.6,26.6,30.72,NNE,15,3.5,-999.9,70,-99.99,,,-99.99,,2013-01-15 14:30:00,
2013-01-15 09:36:00,35.6,26.6,30.72,NE,47,3.5,-999.9,70,-99.99,,,-99.99,,2013-01-15 14:36:00,
2013-01-15 09:42:00,35.6,26.6,30.72,NNE,20,5.8,-999.9,70,-99.99,,,-99.99,,2013-01-15 14:42:00,
2013-01-15 09:50:00,35.6,26.6,30.72,NNW,347,5.8,-999.9,70,-99.99,,,-99.99,,2013-01-15 14:50:00,
2013-01-15 09:56:00,35.6,26.6,30.72,NNW,347,5.8,-999.9,70,-99.99,,,-99.99,,2013-01-15 14:56:00,
2013-01-15 10:02:00,35.6,26.6,30.71,North,1,4.6,-999.9,70,-99.99,,,-99.99,,2013-01-15 15:02:00,
2013-01-15 10:10:00,35.6,26.6,30.72,NNW,346,4.6,-999.9,70,-99.99,,,-99.99,,2013-01-15 15:10:00,
2013-01-15 10:16:00,35.6,26.6,30.72,NNW,346,4.6,-999.9,70,-99.99,,,-99.99,,2013-01-15 15:16:00,
2013-01-15 10:22:00,35.6,26.6,30.71,NNW,348,5.8,-999.9,70,-99.99,,,-99.99,,2013-01-15 15:22:00,
2013-01-15 10:30:00,35.6,26.6,30.72,NNE,18,8.1,-999.9,70,-99.99,,,-99.99,,2013-01-15 15:30:00,
2013-01-15 10:36:00,35.6,26.6,30.72,NNE,18,8.1,-999.9,70,-99.99,,,-99.99,,2013-01-15 15:36:00,
2013-01-15 10:42:00,35.6,24.8,30.72,NNW,327,5.8,-999.9,65,-99.99,,,-99.99,,2013-01-15 15:42:00,
2013-01-15 10:50:00,35.6,24.8,30.73,North,5,3.5,-999.9,65,-99.99,,,-99.99,,2013-01-15 15:50:00,
2013-01-15 10:56:00,35.6,24.8,30.73,North,5,3.5,-999.9,65,-99.99,,,-99.99,,2013-01-15 15:56:00,
2013-01-15 11:02:00,35.6,26.6,30.72,NNW,343,2.3,-999.9,70,-99.99,,,-99.99,,2013-01-15 16:02:00,
2013-01-15 11:10:00,35.6,24.8,30.71,North,351,3.5,-999.9,65,-99.99,,,-99.99,,2013-01-15 16:10:00,
2013-01-15 11:16:00,35.6,24.8,30.71,North,351,3.5,-999.9,65,-99.99,,,-99.99,,2013-01-15 16:16:00,
2013-01-15 11:22:00,35.6,24.8,30.71,NNE,25,5.8,-999.9,65,-99.99,,,-99.99,,2013-01-15 16:22:00,
2013-01-15 11:30:00,35.6,24.8,30.71,North,5,4.6,-999.9,65,-99.99,,,-99.99,,2013-01-15 16:30:00,
2013-01-15 11:44:00,35.6,24.8,30.70,North,355,4.6,-999.9,65,-99.99,,,-99.99,,2013-01-15 16:44:00,
2013-01-15 11:52:00,37.4,26.6,30.70,North,4,3.5,-999.9,65,-99.99,,,-99.99,,2013-01-15 16:52:00,
2013-01-15 11:58:00,37.4,26.6,30.70,North,4,3.5,-999.9,65,-99.99,,,-99.99,,2013-01-15 16:58:00,
2013-01-15 12:04:00,37.4,26.6,30.69,NNE,33,3.5,-999.9,65,-99.99,,,-99.99,,2013-01-15 17:04:00,
2013-01-15 12:13:00,37.4,26.6,30.68,North,5,8.1,-999.9,65,-99.99,,,-99.99,,2013-01-15 17:13:00,
2013-01-15 12:20:00,37.4,26.6,30.68,NNW,344,3.5,-999.9,65,-99.99,,,-99.99,,2013-01-15 17:20:00,
2013-01-15 12:26:00,37.4,26.6,30.68,NNW,344,3.5,-999.9,65,-99.99,,,-99.99,,2013-01-15 17:26:00,
2013-01-15 12:34:00,37.4,26.6,30.67,NNE,19,4.6,-999.9,65,-99.99,,,-99.99,,2013-01-15 17:34:00,
2013-01-15 12:40:00,37.4,26.6,30.66,NNW,344,2.3,-999.9,65,-99.99,,,-99.99,,2013-01-15 17:40:00,
2013-01-15 12:46:00,37.4,26.6,30.66,NNW,344,2.3,-999.9,65,-99.99,,,-99.99,,2013-01-15 17:46:00,
2013-01-15 12:54:00,37.4,26.6,30.66,North,2,5.8,-999.9,65,-99.99,,,-99.99,,2013-01-15 17:54:00,
2013-01-15 13:00:00,37.4,26.6,30.66,North,8,4.6,-999.9,65,-99.99,,,-99.99,,2013-01-15 18:00:00,
2013-01-15 13:06:00,37.4,26.6,30.66,North,8,4.6,-999.9,65,-99.99,,,-99.99,,2013-01-15 18:06:00,
2013-01-15 13:14:00,37.4,26.6,30.66,North,1,3.5,-999.9,65,-99.99,,,-99.99,,2013-01-15 18:14:00,
2013-01-15 13:20:00,37.4,26.6,30.65,North,5,9.2,-999.9,65,-99.99,,,-99.99,,2013-01-15 18:20:00,
2013-01-15 13:26:00,37.4,26.6,30.65,North,5,9.2,-999.9,65,-99.99,,,-99.99,,2013-01-15 18:26:00,
2013-01-15 13:34:00,37.4,26.6,30.64,North,9,5.8,-999.9,65,-99.99,,,-99.99,,2013-01-15 18:34:00,
2013-01-15 13:40:00,37.4,26.6,30.65,NNE,23,5.8,-999.9,65,-99.99,,,-99.99,,2013-01-15 18:40:00,
2013-01-15 13:50:00,37.4,26.6,30.64,NNW,344,5.8,-999.9,65,-99.99,,,-99.99,,2013-01-15 18:50:00,
2013-01-15 13:56:00,37.4,26.6,30.64,NNW,344,5.8,-999.9,65,-99.99,,,-99.99,,2013-01-15 18:56:00,
2013-01-15 14:04:00,37.4,26.6,30.64,NNE,12,6.9,-999.9,65,-99.99,,,-99.99,,2013-01-15 19:04:00,
2013-01-15 14:10:00,37.4,24.8,30.65,North,359,6.9,-999.9,60,-99.99,,,-99.99,,2013-01-15 19:10:00,
2013-01-15 14:16:00,37.4,24.8,30.65,North,359,6.9,-999.9,60,-99.99,,,-99.99,,2013-01-15 19:16:00,
2013-01-15 14:24:00,37.4,26.6,30.64,North,7,3.5,-999.9,65,-99.99,,,-99.99,,2013-01-15 19:24:00,
2013-01-15 14:30:00,37.4,24.8,30.65,North,3,6.9,-999.9,60,-99.99,,,-99.99,,2013-01-15 19:30:00,
2013-01-15 14:36:00,37.4,24.8,30.65,North,3,6.9,-999.9,60,-99.99,,,-99.99,,2013-01-15 19:36:00,
2013-01-15 14:44:00,37.4,26.6,30.65,North,3,4.6,-999.9,65,-99.99,,,-99.99,,2013-01-15 19:44:00,
2013-01-15 14:50:00,37.4,26.6,30.64,NNE,12,5.8,-999.9,65,-99.99,,,-99.99,,2013-01-15 19:50:00,
2013-01-15 14:56:00,37.4,26.6,30.64,NNE,12,5.8,-999.9,65,-99.99,,,-99.99,,2013-01-15 19:56:00,
2013-01-15 15:04:00,37.4,26.6,30.64,NNE,21,6.9,-999.9,65,-99.99,,,-99.99,,2013-01-15 20:04:00,
2013-01-15 15:10:00,37.4,26.6,30.63,North,352,3.5,-999.9,65,-99.99,,,-99.99,,2013-01-15 20:10:00,
2013-01-15 15:20:00,37.4,26.6,30.63,North,352,3.5,-999.9,65,-99.99,,,-99.99,,2013-01-15 20:20:00,
2013-01-15 15:26:00,37.4,26.6,30.63,North,5,3.5,-999.9,65,-99.99,,,-99.99,,2013-01-15 20:26:00,
2013-01-15 15:34:00,37.4,26.6,30.63,NNE,19,9.2,-999.9,65,-99.99,,,-99.99,,2013-01-15 20:34:00,
2013-01-15 15:40:00,37.4,24.8,30.65,NNE,14,8.1,-999.9,60,-99.99,,,-99.99,,2013-01-15 20:40:00,
2013-01-15 15:56:00,37.4,26.6,30.66,NNE,12,4.6,-999.9,65,-99.99,,,-99.99,,2013-01-15 20:56:00,
2013-01-15 16:05:00,37.4,26.6,30.66,North,358,4.6,-999.9,65,-99.99,,,-99.99,,2013-01-15 21:05:00,
2013-01-15 16:10:00,37.4,26.6,30.66,North,0,5.8,-999.9,65,-99.99,,,-99.99,,2013-01-15 21:10:00,
2013-01-15 16:16:00,37.4,26.6,30.66,North,0,5.8,-999.9,65,-99.99,,,-99.99,,2013-01-15 21:16:00,
2013-01-15 16:24:00,37.4,26.6,30.65,NNE,32,9.2,-999.9,65,-99.99,,,-99.99,,2013-01-15 21:24:00,
2013-01-15 16:31:00,37.4,26.6,30.65,NNE,22,2.3,-999.9,65,-99.99,,,-99.99,,2013-01-15 21:31:00,
2013-01-15 16:36:00,37.4,26.6,30.65,NNE,22,2.3,-999.9,65,-99.99,,,-99.99,,2013-01-15 21:36:00,
2013-01-15 16:45:00,37.4,26.6,30.65,North,7,5.8,-999.9,65,-99.99,,,-99.99,,2013-01-15 21:45:00,
2013-01-15 16:50:00,37.4,26.6,30.65,North,7,5.8,-999.9,65,-99.99,,,-99.99,,2013-01-15 21:50:00,
2013-01-15 16:57:00,37.4,26.6,30.65,NE,46,2.3,-999.9,65,-99.99,,,-99.99,,2013-01-15 21:57:00,
2013-01-15 17:04:00,37.4,26.6,30.65,NNE,22,4.6,-999.9,65,-99.99,,,-99.99,,2013-01-15 22:04:00,
2013-01-15 17:10:00,37.4,26.6,30.65,NNW,348,3.5,-999.9,65,-99.99,,,-99.99,,2013-01-15 22:10:00,
2013-01-15 17:16:00,37.4,26.6,30.65,NNW,348,3.5,-999.9,65,-99.99,,,-99.99,,2013-01-15 22:16:00,
2013-01-15 17:24:00,37.4,26.6,30.66,NNW,339,1.2,-999.9,65,-99.99,,,-99.99,,2013-01-15 22:24:00,
2013-01-15 17:36:00,37.4,26.6,30.66,North,8,1.2,-999.9,65,-99.99,,,-99.99,,2013-01-15 22:36:00,
2013-01-15 17:43:00,37.4,26.6,30.65,NNE,21,0.0,-999.9,65,-99.99,,,-99.99,,2013-01-15 22:43:00,
2013-01-15 17:50:00,37.4,26.6,30.65,NNE,12,1.2,-999.9,65,-99.99,,,-99.99,,2013-01-15 22:50:00,
2013-01-15 17:56:00,37.4,26.6,30.65,NNE,12,1.2,-999.9,65,-99.99,,,-99.99,,2013-01-15 22:56:00,
2013-01-15 18:04:00,37.4,26.6,30.64,North,354,0.0,-999.9,65,-99.99,,,-99.99,,2013-01-15 23:04:00,
2013-01-15 18:09:00,37.4,26.6,30.64,North,354,0.0,-999.9,65,-99.99,,,-99.99,,2013-01-15 23:09:00,
2013-01-15 18:15:00,37.4,26.6,30.65,NNW,331,0.0,-999.9,65,-99.99,,,-99.99,,2013-01-15 23:15:00,
2013-01-15 18:24:00,37.4,26.6,30.65,North,8,2.3,-999.9,65,-99.99,,,-99.99,,2013-01-15 23:24:00,
2013-01-15 18:29:00,37.4,26.6,30.65,North,8,2.3,-999.9,65,-99.99,,,-99.99,,2013-01-15 23:29:00,
2013-01-15 19:22:00,37.4,26.6,30.66,ESE,115,0.0,-999.9,65,-99.99,,,-99.99,,2013-01-16 00:22:00,
2013-01-15 19:28:00,37.4,26.6,30.66,ESE,115,0.0,-999.9,65,-99.99,,,-99.99,,2013-01-16 00:28:00,
2013-01-15 19:34:00,37.4,26.6,30.66,NNW,329,3.5,-999.9,65,-99.99,,,-99.99,,2013-01-16 00:34:00,
2013-01-15 19:41:00,37.4,26.6,30.65,NNE,26,1.2,-999.9,65,-99.99,,,-99.99,,2013-01-16 00:41:00,
2013-01-15 19:47:00,37.4,26.6,30.65,NNE,26,1.2,-999.9,65,-99.99,,,-99.99,,2013-01-16 00:47:00,
2013-01-15 19:53:00,37.4,26.6,30.64,North,0,4.6,-999.9,65,-99.99,,,-99.99,,2013-01-16 00:53:00,
2013-01-15 19:59:00,37.4,26.6,30.64,North,0,4.6,-999.9,65,-99.99,,,-99.99,,2013-01-16 00:59:00,
2013-01-15 20:04:00,37.4,26.6,30.63,NNW,347,1.2,-999.9,65,-99.99,,,-99.99,,2013-01-16 01:04:00,
2013-01-15 20:12:00,37.4,26.6,30.63,North,7,3.5,-999.9,65,-99.99,,,-99.99,,2013-01-16 01:12:00,
2013-01-15 20:20:00,37.4,26.6,30.63,North,0,0.0,-999.9,65,-99.99,,,-99.99,,2013-01-16 01:20:00,
2013-01-15 20:26:00,37.4,26.6,30.63,North,0,0.0,-999.9,65,-99.99,,,-99.99,,2013-01-16 01:26:00,
2013-01-15 20:34:00,37.4,26.6,30.62,NNE,16,4.6,-999.9,65,-99.99,,,-99.99,,2013-01-16 01:34:00,
2013-01-15 20:40:00,37.4,26.6,30.62,NNE,16,4.6,-999.9,65,-99.99,,,-99.99,,2013-01-16 01:40:00,
2013-01-15 20:46:00,37.4,26.6,30.64,North,0,0.0,-999.9,65,-99.99,,,-99.99,,2013-01-16 01:46:00,
2013-01-15 20:54:00,37.4,26.6,30.64,NW,319,0.0,-999.9,65,-99.99,,,-99.99,,2013-01-16 01:54:00,
2013-01-15 21:00:00,37.4,26.6,30.64,NW,323,0.0,-999.9,65,-99.99,,,-99.99,,2013-01-16 02:00:00,
2013-01-15 21:06:00,37.4,26.6,30.64,NW,323,0.0,-999.9,65,-99.99,,,-99.99,,2013-01-16 02:06:00,
2013-01-15 21:14:00,37.4,26.6,30.63,NNE,14,2.3,-999.9,65,-99.99,,,-99.99,,2013-01-16 02:14:00,
2013-01-15 21:20:00,37.4,26.6,30.63,North,0,0.0,-999.9,65,-99.99,,,-99.99,,2013-01-16 02:20:00,
2013-01-15 21:26:00,37.4,26.6,30.63,North,0,0.0,-999.9,65,-99.99,,,-99.99,,2013-01-16 02:26:00,
2013-01-15 21:34:00,37.4,26.6,30.62,North,0,0.0,-999.9,65,-99.99,,,-99.99,,2013-01-16 02:34:00,
2013-01-15 21:40:00,37.4,26.6,30.61,North,0,0.0,-999.9,65,-99.99,,,-99.99,,2013-01-16 02:40:00,
2013-01-15 21:46:00,37.4,26.6,30.61,North,0,0.0,-999.9,65,-99.99,,,-99.99,,2013-01-16 02:46:00,
2013-01-15 21:54:00,37.4,26.6,30.60,North,0,0.0,-999.9,65,-99.99,,,-99.99,,2013-01-16 02:54:00,
2013-01-15 21:59:00,37.4,26.6,30.60,North,0,0.0,-999.9,65,-99.99,,,-99.99,,2013-01-16 02:59:00,
2013-01-15 22:04:00,37.4,26.6,30.61,North,0,0.0,-999.9,65,-99.99,,,-99.99,,2013-01-16 03:04:00,
2013-01-15 22:10:00,37.4,26.6,30.61,North,0,0.0,-999.9,65,-99.99,,,-99.99,,2013-01-16 03:10:00,
2013-01-15 22:16:00,37.4,26.6,30.61,North,0,0.0,-999.9,65,-99.99,,,-99.99,,2013-01-16 03:16:00,
2013-01-15 22:24:00,37.4,26.6,30.62,North,0,0.0,-999.9,65,-99.99,,,-99.99,,2013-01-16 03:24:00,
2013-01-15 22:30:00,37.4,26.6,30.61,North,0,0.0,-999.9,65,-99.99,,,-99.99,,2013-01-16 03:30:00,
2013-01-15 22:36:00,37.4,26.6,30.61,North,0,0.0,-999.9,65,-99.99,,,-99.99,,2013-01-16 03:36:00,
2013-01-15 22:43:00,37.4,26.6,30.61,NNW,338,0.0,-999.9,65,-99.99,,,-99.99,,2013-01-16 03:43:00,
2013-01-15 22:50:00,37.4,28.4,30.61,NW,326,0.0,-999.9,70,-99.99,,,-99.99,,2013-01-16 03:50:00,
2013-01-15 22:56:00,37.4,28.4,30.61,NW,326,0.0,-999.9,70,-99.99,,,-99.99,,2013-01-16 03:56:00,
2013-01-15 23:04:00,37.4,28.4,30.61,North,0,0.0,-999.9,70,-99.99,,,-99.99,,2013-01-16 04:04:00,
2013-01-15 23:10:00,35.6,26.6,30.61,ENE,65,1.2,-999.9,70,-99.99,,,-99.99,,2013-01-16 04:10:00,
2013-01-15 23:16:00,35.6,26.6,30.61,ENE,65,1.2,-999.9,70,-99.99,,,-99.99,,2013-01-16 04:16:00,
2013-01-15 23:24:00,35.6,28.4,30.60,NNE,24,0.0,-999.9,75,-99.99,,,-99.99,,2013-01-16 04:24:00,
2013-01-15 23:32:00,35.6,28.4,30.60,North,0,0.0,-999.9,75,-99.99,,,-99.99,,2013-01-16 04:32:00,
2013-01-15 23:38:00,35.6,28.4,30.60,North,0,0.0,-999.9,75,-99.99,,,-99.99,,2013-01-16 04:38:00,
2013-01-15 23:46:00,35.6,28.4,30.60,North,0,0.0,-999.9,75,-99.99,,,-99.99,,2013-01-16 04:46:00,
2013-01-15 23:52:00,35.6,30.2,30.60,North,0,0.0,-999.9,81,-99.99,,,-99.99,,2013-01-16 04:52:00,
2013-01-15 23:58:00,35.6,30.2,30.60,North,0,0.0,-999.9,81,-99.99,,,-99.99,,2013-01-16 04:58:00,